FW1092 Weather Reports


Display with metric or nautical units.
time (UTC)temp
F
wind
direction
speed
MPH
gust
MPH
rain 1hr
in
rain 24hr
in
rain mn
in
humidity
%
barometer
mb
20201027211521 51 216 1.0 8.0 0.02 0.31 0.29 98 1014.2
20201027211021 51 207 2.0 5.0 0.03 0.32 0.29 98 1014.1
20201027210507 51 206 2.0 6.0 0.03 0.32 0.29 98 1014.1
20201027210022 51 210 2.0 6.0 0.02 0.31 0.28 98 1014.1
20201027205021 51 207 2.0 7.0 0.02 0.31 0.28 98 1014.2
20201027204519 51 209 2.0 7.0 0.02 0.31 0.28 98 1014.2
20201027204025 51 210 2.0 8.0 0.02 0.31 0.28 98 1014.1
20201027202523 51 202 3.0 10.0 0.02 0.30 0.27 98 1014.1
20201027202010 51 207 2.0 11.0 0.02 0.30 0.27 98 1014.0
20201027201518 51 215 2.0 11.0 0.02 0.30 0.27 98 1014.0
20201027201019 51 212 3.0 8.0 0.01 0.29 0.26 98 1013.9
20201027200516 51 210 3.0 10.0 0.02 0.29 0.26 98 1013.9
20201027200023 51 205 3.0 11.0 0.02 0.29 0.26 98 1013.9
20201027195516 51 211 3.0 11.0 0.02 0.29 0.26 98 1013.8
20201027195011 51 215 3.0 10.0 0.02 0.29 0.26 98 1013.8
20201027194519 51 208 2.0 10.0 0.02 0.29 0.26 98 1013.8
20201027194008 51 209 2.0 10.0 0.02 0.29 0.26 98 1013.8
20201027193537 51 212 2.0 6.0 0.02 0.29 0.26 98 1013.7
20201027193023 51 208 2.0 7.0 0.02 0.28 0.25 98 1013.8
20201027192523 51 210 2.0 11.0 0.02 0.28 0.25 98 1013.7
20201027192022 51 207 2.0 11.0 0.02 0.28 0.25 98 1013.7
20201027191521 51 196 2.0 9.0 0.02 0.28 0.25 98 1013.7
20201027191007 51 201 2.0 7.0 0.02 0.28 0.25 98 1013.7
20201027190507 51 213 2.0 7.0 0.01 0.28 0.24 98 1013.6
20201027190028 51 214 2.0 8.0 0.02 0.28 0.24 98 1013.6
20201027185508 51 221 2.0 8.0 0.02 0.28 0.24 98 1013.7
20201027185010 50 223 2.0 7.0 0.01 0.27 0.24 98 1013.7
20201027184516 50 209 1.0 10.0 0.02 0.27 0.24 98 1013.7
20201027184009 50 212 1.0 10.0 0.02 0.27 0.24 98 1013.7
20201027183020 50 221 1.0 6.0 0.05 0.27 0.24 98 1013.7
20201027182525 50 220 1.0 7.0 0.06 0.27 0.24 98 1013.7
20201027182008 50 220 2.0 7.0 0.07 0.27 0.24 98 1013.7
20201027181516 50 221 3.0 7.0 0.07 0.27 0.24 98 1013.7
20201027181052 50 222 4.0 9.0 0.07 0.27 0.24 98 1013.6
20201027180512 50 221 5.0 9.0 0.06 0.26 0.23 98 1013.6
20201027180020 50 219 6.0 13.0 0.06 0.26 0.23 98 1013.6
20201027175515 51 223 6.0 13.0 0.06 0.26 0.23 97 1013.5
20201027175044 51 229 5.0 11.0 0.06 0.26 0.23 97 1013.5
20201027174526 51 230 4.0 10.0 0.06 0.25 0.22 97 1013.5
20201027174010 52 232 5.0 9.0 0.05 0.24 0.20 98 1013.5
20201027173512 52 234 5.0 9.0 0.04 0.23 0.20 98 1013.4
20201027173025 52 228 5.0 10.0 0.03 0.22 0.19 98 1013.4
20201027172511 52 219 4.0 10.0 0.03 0.21 0.18 98 1013.1
20201027172022 52 213 4.0 10.0 0.02 0.20 0.17 98 1013.1
20201027171538 52 213 4.0 10.0 0.02 0.20 0.17 98 1013.0
20201027171023 52 215 4.0 9.0 0.02 0.20 0.17 98 1013.0
20201027170515 52 216 3.0 12.0 0.02 0.20 0.17 98 1012.9
20201027170021 52 213 3.0 12.0 0.02 0.20 0.17 98 1012.9
20201027165510 52 211 3.0 11.0 0.02 0.20 0.17 98 1012.9
20201027165006 52 216 3.0 7.0 0.02 0.19 0.16 98 1012.9
20201027164514 52 216 3.0 7.0 0.02 0.19 0.16 98 1012.9
20201027164020 52 216 3.0 9.0 0.02 0.19 0.16 98 1012.8
20201027163518 52 217 3.0 9.0 0.02 0.19 0.16 97 1012.8
20201027163026 52 213 3.0 11.0 0.02 0.19 0.16 97 1012.7
20201027162508 52 209 3.0 11.0 0.01 0.18 0.15 97 1012.7
20201027162023 52 211 3.0 10.0 0.01 0.18 0.15 97 1012.7
20201027161521 52 214 3.0 8.0 0.02 0.18 0.15 97 1012.7
20201027161018 52 216 2.0 8.0 0.02 0.18 0.15 97 1012.7
20201027160516 52 215 2.0 8.0 0.01 0.17 0.14 97 1012.7
20201027160040 52 214 2.0 8.0 0.01 0.17 0.14 98 1012.6
20201027155509 52 212 2.0 8.0 0.01 0.17 0.14 97 1012.6
20201027155018 52 210 2.0 8.0 0.01 0.18 0.14 97 1012.5
20201027154529 52 211 2.0 7.0 0.01 0.18 0.14 98 1012.4
20201027154006 52 210 2.0 7.0 0.01 0.18 0.14 98 1012.4
20201027153521 52 212 2.0 7.0 0.01 0.18 0.14 98 1012.4
20201027153027 52 215 2.0 7.0 0.01 0.18 0.14 98 1012.3
20201027152526 52 218 2.0 6.0 0.01 0.18 0.14 98 1012.4
20201027152022 52 221 2.0 6.0 0.01 0.18 0.14 98 1012.4
20201027151520 52 221 2.0 10.0 0.00 0.17 0.13 98 1012.3
20201027151012 52 222 2.0 10.0 0.00 0.17 0.13 98 1012.3
20201027150515 52 219 2.0 9.0 0.00 0.17 0.13 97 1012.4
20201027150026 52 211 2.0 9.0 0.00 0.20 0.13 97 1012.5
20201027145506 52 211 2.0 9.0 0.00 0.20 0.13 98 1012.4
20201027145022 52 216 2.0 10.0 0.00 0.20 0.13 98 1012.4
20201027144515 52 213 2.0 11.0 0.00 0.20 0.13 98 1012.4
20201027144018 52 203 2.0 11.0 0.00 0.20 0.13 98 1012.5
20201027143520 52 206 2.0 9.0 0.00 0.20 0.13 98 1012.4
20201027143022 52 220 1.0 9.0 0.00 0.21 0.13 98 1012.4
20201027142509 52 216 1.0 7.0 0.00 0.21 0.13 98 1012.4
20201027142022 52 217 2.0 9.0 0.00 0.23 0.13 98 1012.3
20201027141523 52 227 2.0 9.0 0.01 0.23 0.13 98 1012.4
20201027141008 52 225 2.0 7.0 0.01 0.23 0.13 98 1012.5
20201027140509 52 221 2.0 7.0 0.01 0.23 0.13 98 1012.5
20201027140020 52 220 2.0 7.0 0.01 0.23 0.13 98 1012.5
20201027135515 52 216 1.0 7.0 0.01 0.23 0.13 98 1012.5
20201027135005 52 219 1.0 6.0 0.02 0.23 0.13 98 1012.4
20201027134514 52 215 1.0 8.0 0.02 0.23 0.13 98 1012.5
20201027134008 52 211 1.0 8.0 0.02 0.23 0.13 98 1012.5
20201027133516 52 217 2.0 6.0 0.02 0.23 0.13 98 1012.7
20201027133022 52 218 2.0 6.0 0.02 0.23 0.13 98 1012.6
20201027132511 52 214 2.0 8.0 0.02 0.23 0.13 98 1012.8
20201027132012 52 218 1.0 8.0 0.02 0.23 0.13 98 1012.9
20201027131525 52 223 1.0 6.0 0.02 0.22 0.13 98 1012.9
20201027131010 51 219 2.0 5.0 0.02 0.22 0.13 98 1012.9
20201027130522 51 209 2.0 8.0 0.02 0.22 0.13 98 1012.9
20201027130019 51 206 2.0 8.0 0.02 0.22 0.13 98 1013.0
20201027125514 51 212 2.0 6.0 0.02 0.22 0.13 98 1013.0
20201027125016 51 212 2.0 8.0 0.01 0.21 0.12 98 1013.1
20201027124509 51 211 2.0 9.0 0.01 0.21 0.12 98 1013.1
20201027124015 51 213 2.0 9.0 0.01 0.21 0.12 98 1013.2
20201027123510 51 214 2.0 9.0 0.01 0.20 0.11 98 1013.2
20201027123021 51 213 2.0 8.0 0.01 0.20 0.11 98 1013.2
20201027122511 51 209 2.0 9.0 0.01 0.20 0.11 98 1013.2
20201027122008 51 214 2.0 9.0 0.01 0.20 0.11 98 1013.2
20201027121522 51 223 2.0 6.0 0.01 0.20 0.11 98 1013.3
20201027121010 51 218 2.0 9.0 0.02 0.20 0.11 98 1013.4
20201027120510 51 214 2.0 9.0 0.02 0.20 0.11 98 1013.4
20201027120021 51 211 2.0 8.0 0.02 0.20 0.11 98 1013.4
20201027115515 50 208 2.0 9.0 0.02 0.20 0.11 98 1013.4
20201027115008 51 214 1.0 9.0 0.02 0.20 0.11 98 1013.5
20201027114516 50 223 1.0 6.0 0.02 0.20 0.11 98 1013.6
20201027114010 50 219 1.0 5.0 0.02 0.20 0.11 98 1013.6
20201027113509 50 218 1.0 6.0 0.01 0.20 0.10 98 1013.6
20201027113023 50 223 2.0 6.0 0.01 0.20 0.10 98 1013.7
20201027112527 50 211 2.0 8.0 0.02 0.20 0.10 98 1013.8
20201027112010 50 204 1.0 8.0 0.02 0.20 0.10 98 1013.9
20201027111518 50 214 1.0 6.0 0.01 0.19 0.09 98 1013.9
20201027111009 50 217 2.0 6.0 0.02 0.19 0.09 98 1014.0
20201027110509 50 194 2.0 8.0 0.02 0.19 0.09 98 1014.0
20201027110018 50 186 2.0 8.0 0.02 0.19 0.09 98 1014.0
20201027104011 50 206 1.0 8.0 0.02 0.19 0.09 98 1014.2
20201027103519 50 193 1.0 8.0 0.02 0.19 0.09 98 1014.2
20201027103020 50 190 1.0 4.0 0.03 0.19 0.09 98 1014.2
20201027102506 49 189 1.0 5.0 0.02 0.18 0.09 98 1014.2
20201027102011 49 197 1.0 5.0 0.02 0.18 0.09 98 1014.2
20201027101510 49 208 1.0 5.0 0.02 0.18 0.09 98 1014.2
20201027101008 49 228 1.0 6.0 0.02 0.17 0.08 98 1014.2
20201027100510 49 239 1.0 6.0 0.02 0.17 0.08 98 1014.1
20201027100021 49 238 1.0 5.0 0.02 0.17 0.08 98 1014.1
20201027095521 49 221 1.0 5.0 0.02 0.17 0.08 98 1014.2
20201027095009 49 210 1.0 5.0 0.02 0.17 0.07 98 1014.2
20201027094519 48 198 1.0 6.0 0.02 0.17 0.07 98 1014.2
20201027094016 48 199 1.0 6.0 0.02 0.17 0.07 98 1014.1
20201027093508 48 190 1.0 7.0 0.02 0.17 0.07 98 1014.2
20201027093026 48 180 1.0 7.0 0.01 0.16 0.06 98 1014.2
20201027092512 48 178 1.0 7.0 0.01 0.16 0.06 98 1014.1
20201027091519 48 208 1.0 7.0 0.01 0.16 0.06 98 1014.2
20201027091005 48 219 1.0 6.0 0.01 0.16 0.06 98 1014.1
20201027090511 48 218 1.0 6.0 0.00 0.15 0.06 98 1014.2
20201027090019 48 189 1.0 10.0 0.00 0.15 0.06 98 1014.1
20201027085509 48 179 1.0 10.0 0.00 0.15 0.06 98 1014.0
20201027085007 48 173 1.0 2.0 0.00 0.15 0.06 98 1014.0
20201027084518 48 173 1.0 8.0 0.00 0.15 0.06 98 1014.0
20201027084008 48 180 1.0 8.0 0.00 0.15 0.06 98 1014.0
20201027083518 48 185 1.0 7.0 0.00 0.15 0.06 98 1014.0
20201027083020 47 174 1.0 7.0 0.00 0.15 0.06 98 1014.1
20201027082507 47 164 1.0 9.0 0.00 0.15 0.06 98 1014.0
20201027082007 47 175 1.0 9.0 0.00 0.15 0.06 98 1014.0
20201027081518 47 230 1.0 4.0 0.00 0.15 0.06 98 1014.1
20201027081017 47 220 1.0 7.0 0.00 0.15 0.06 98 1014.1
20201027080507 47 221 1.0 7.0 0.00 0.15 0.06 98 1014.2
20201027075510 47 223 1.0 6.0 0.00 0.15 0.06 98 1014.2
20201027075010 47 223 1.0 6.0 0.00 0.15 0.06 98 1014.2
20201027074528 46 223 2.0 5.0 0.00 0.15 0.06 98 1014.1
20201027073521 46 223 2.0 5.0 0.00 0.15 0.06 98 1014.1
20201027073020 46 222 2.0 7.0 0.00 0.15 0.06 98 1014.0
20201027072517 46 220 2.0 7.0 0.00 0.15 0.06 98 1013.9
20201027072010 46 218 1.0 7.0 0.00 0.15 0.06 98 1013.9
20201027071527 46 219 1.0 6.0 0.00 0.15 0.06 98 1013.9
20201027071018 46 221 2.0 5.0 0.00 0.15 0.06 98 1013.7
20201027070510 46 227 3.0 6.0 0.00 0.15 0.06 98 1013.7
20201027070032 46 229 3.0 6.0 0.00 0.15 0.06 98 1013.7
20201027065512 46 233 3.0 6.0 0.00 0.15 0.06 97 1013.7
20201027065009 46 235 3.0 6.0 0.00 0.15 0.06 97 1013.7
20201027064517 46 233 3.0 7.0 0.00 0.15 0.06 97 1013.7
20201027064012 46 234 3.0 7.0 0.00 0.15 0.06 97 1013.6
20201027063522 46 237 3.0 6.0 0.00 0.15 0.06 97 1013.6
20201027063023 46 237 3.0 7.0 0.00 0.15 0.06 97 1013.6
20201027062518 46 230 3.0 7.0 0.01 0.15 0.06 97 1013.6
20201027062020 46 231 3.0 6.0 0.01 0.15 0.06 97 1013.5
20201027061509 46 235 3.0 7.0 0.01 0.15 0.06 97 1013.5
20201027061023 46 231 3.0 7.0 0.01 0.15 0.06 97 1013.4
20201027060511 46 232 3.0 6.0 0.01 0.15 0.06 97 1013.4
20201027060020 46 232 3.0 6.0 0.01 0.15 0.06 97 1013.3
20201027055509 46 236 3.0 7.0 0.01 0.15 0.06 97 1013.3
20201027055012 46 238 3.0 7.0 0.01 0.15 0.06 97 1013.3
20201027054521 46 229 3.0 7.0 0.01 0.15 0.06 97 1013.4
20201027054011 46 224 3.0 7.0 0.01 0.15 0.06 97 1013.2
20201027053512 46 226 3.0 7.0 0.01 0.15 0.06 97 1013.2
20201027053019 46 232 3.0 7.0 0.01 0.15 0.06 97 1013.2
20201027052518 46 236 2.0 7.0 0.00 0.14 0.05 97 1013.3
20201027052007 46 233 2.0 7.0 0.00 0.14 0.05 97 1013.2
20201027051518 46 229 3.0 5.0 0.00 0.14 0.05 97 1013.2
20201027051008 46 228 4.0 8.0 0.00 0.14 0.05 97 1013.1
20201027050519 46 229 4.0 8.0 0.00 0.14 0.05 97 1013.2
20201027050026 46 229 3.0 7.0 0.00 0.14 0.05 97 1013.1
20201027045508 46 229 2.0 7.0 0.00 0.14 0.05 97 1013.2
20201027045007 46 229 2.0 5.0 0.00 0.14 0.05 97 1013.1
20201027044519 46 228 2.0 6.0 0.00 0.14 0.05 97 1013.2
20201027044017 46 233 2.0 6.0 0.00 0.14 0.05 97 1013.2
20201027043511 46 239 1.0 5.0 0.00 0.14 0.05 97 1013.2
20201027043020 46 240 0.0 4.0 0.00 0.14 0.05 97 1013.1
20201027042509 46 239 1.0 4.0 0.00 0.14 0.05 97 1013.1
20201027042020 46 239 1.0 4.0 0.00 0.14 0.05 97 1013.1
20201027041522 46 239 1.0 5.0 0.00 0.14 0.05 97 1013.1
20201027041011 46 238 2.0 5.0 0.01 0.14 0.05 97 1013.1
20201027035024 46 267 2.0 6.0 0.01 0.14 0.05 97 1013.1
20201027034520 46 255 2.0 5.0 0.01 0.14 0.05 97 1013.0
20201027034012 46 246 2.0 5.0 0.01 0.14 0.05 97 1012.9
20201027033519 46 246 2.0 6.0 0.01 0.14 0.05 97 1012.9
20201027030511 46 235 3.0 6.0 0.01 0.13 0.04 97 1013.1
20201027030019 46 232 3.0 6.0 0.01 0.13 0.04 97 1013.1
20201027025520 46 237 3.0 6.0 0.01 0.13 0.04 97 1013.0
20201027024519 46 237 2.0 7.0 0.01 0.13 0.04 97 1013.0
20201027024005 46 236 1.0 6.0 0.01 0.13 0.04 97 1013.1
20201027023514 46 240 2.0 5.0 0.01 0.13 0.04 97 1013.1
20201027023024 46 243 3.0 4.0 0.01 0.13 0.04 97 1013.1